Showing default

USA 271, 41745

Orbit data source: Space-Track

USA 271, 41745 is a payload satellite owned by USAF AFSPC (US) in GEO that was launched on Fri, 19 Aug 2016 UTC via a DELTA 4M+(4,2) launch vehicle from the Air Force Eastern Test Range (AFETR). Payload-class satellites include a variety of spacecraft equipped with specific instruments for various scientific and technological missions. These include communications satellites like Starlink; space stations such as the ISS; scientific satellites like the Hubble; Earth observation satellites from companies like Planet Labs, Umbra, and HawkEye 360; GPS; miniature CubeSats for education and research; and military/defense satellites.

Not visible in the next 10 days
Identifier
41745, 2016-052B
Orbit
GEO
Country
Flag of USUS
Related business
Manufacturer
OATK SSG
Mission
Operational Defense Classified
Bus & Motor
GEOSTAR-1, AOCS
Mass
500 kg wet, 500 kg dry
Launch date (UTC)
2016-08-19 (10 years ago)
Launch vehicle
DELTA 4M+(4,2)
Launch site
Air Force Eastern Test Range (AFETR)
Object type
Payload
Rocket body
Debris
Shape & HBR
Box + 2 Pan, 2.5 m
Radar Cross Section
7.621 m²

Expand to show TLE details & history
Last TLE update: 2 weeks ago

TLE from 2 weeks ago
0 USA 271
1 41745U 16052B   26110.88563977 -.00000360  00000-0  00000+0 0  9997
2 41745   4.0240  77.9674 0007317 143.7849  69.2738  1.00241576 27344
Epoch: 2026-04-20T21:15Z
TLE epoch observation values (Epoch: 2026-04-20T21:15:19.276Z)
Latitude
-2.18966°
Longitude
123.24217°
Altitude
35,783.962 km
Speed
3.075 km/s
True Right ascension
19h 24m 10s
True Declination
-2° 11' 15"
Sunlit
Object was in daylight at epoch
Visualization orbit readout
Latitude
Unknown
Longitude
Unknown
Altitude
Unknown
Speed
Unknown
Apparent Right ascension
Unknown
Apparent Declination
Unknown
Sunlit
N/A
Visualization observer readout
Local Sidereal Time
00:31:10
Azimuth
Unknown
Elevation
Unknown
Doppler factor
Unknown
Orbital elements
Apogee altitude
35,826.987 km
Perigee altitude
35,765.269 km
Semi-major axis
42,174.265 km
Eccentricity
0.00073
Inclination
4.024°
RAAN
77.9674°
Arg. of periapsis
143.7849°
True anomaly
69.35225°
Mean anomaly
69.2738°
Eccentric anomaly
69.31302°
Mean motion
0.25059 °/min
Orbital period
1,436.58 mins
BSTAR
0
Loading maneuver chart data...
Computing Atmospheric mass density...
Loading historical data...
Loading historical data...
Loading historical data...
Loading historical data...
Loading historical data...
Loading historical data...
Loading historical data...
Other satellites on launch #52 in the year 2016 (2016-08-19 UTC)

Documentation

Showing up to 5 results
|